Location: Peterborough
(44.3091°N, 78.3197°W)
Time: 03:47:36
(UTC-04:00)

Tiros 1 despin weight - Pass Details

Date: 22 March 2023
Orbit: 586 x 632 km, 48.2° (Epoch: 08 June)

Event Time Altitude Azimuth Distance (km) Brightness Sun altitude
Rises 00:18:09 0° 249° (WSW) 2,810 - -43.1°
Reaches altitude 10° 00:20:25 10° 251° (WSW) 1,916 - -43.2°
Maximum altitude 00:24:49 83° 339° (NNW) 605 - -43.5°
Drops below altitude 10° 00:29:18 10° 68° (ENE) 1,949 - -43.8°
Sets 00:31:37 0° 69° (ENE) 2,862 - -43.9°
